User: anonymous   Login
Location: Hungerford
(51.4167°N, 1.5167°W)
Time: 04:37:52
(UTC+00:00)
Language:

Cosmos 1048 Rocket - Orbit

View from above orbital plane
View from above orbital plane
View from above satellite
View from above satellite

Ground track
Ground track

The orbit data is extracted from the following two-line orbital elements,

1 11112U 78105B   20337.33458921  .00000100  00000-0  42082-4 0  9998
2 11112  74.0316   0.2866 0034406 210.8786 149.0345 14.37282266201112
Epoch (UTC): 02 December 2020 08:01:48
Eccentricity: 0.0034406
inclination: 74.0316°
perigee height: 743 km
apogee height: 792 km
right ascension of ascending node: 0.2866°
argument of perigee: 210.8786°
revolutions per day: 14.37282266
mean anomaly at epoch: 149.0345°
orbit number at epoch: 20111

The dashed part of the orbit path shows where the satellite is in the earth's shadow,  

DLR